Terminal Aerodrome Forecast
Issued by NWS Mt. Holly, NJ

Home | Current Version | Previous Version | Text Only | Print | Product List | Glossary On
Versions: 1 2 3 4 5 6 7 8 9 10 11 12 13 14 15 16 17 18 19 20 21 22 23 24 25 26 27 28 29
000
FTUS41 KPHI 230500
TAFPHL
TAF
KPHL 230538Z 2306/2412 33008KT P6SM BKN250
     FM231300 36006KT P6SM BKN250
     FM231700 33005KT P6SM SCT250
     FM240000 05005KT P6SM SCT250=

USA.gov is the U.S. government's official web portal to all federal, state and local government web resources and services.